Montreal Mirabel, Quebec

2:08 PM EDT on July 23, 2016 (GMT -0400)
Montreal International (Mirabel)

Weather History for CYMX - November, 2014

Change the Weather History Date:

Saturday, November 8, 2014

  Actual Average Record
Temperature  
Mean Temperature 30 °F -  
Max Temperature 35 °F 40 °F 66 °F (1996)
Min Temperature 26 °F 27 °F 15 °F (2003)
Degree Days  
Heating Degree Days 34    
Moisture  
Dew Point 23 °F    
Average Humidity 70    
Maximum Humidity 93    
Minimum Humidity 55    
Precipitation  
Precipitation 0.00 in - - ()
Sea Level Pressure  
Sea Level Pressure 29.85 in    
Wind  
Wind Speed 5 mph ()    
Max Wind Speed 10 mph    
Max Gust Speed 18 mph    
Visibility 17.5 miles    
Events Rain , Snow    
Averages and records for this station are not official NWS values.
T = Trace of Precipitation, MM = Missing Value Source: Averaged Metar Reports

Daily Weather History Graph

Daily Weather History Graph

Search for Another Location

Airport or City:

Trip Planner

Search our weather history database for the weather conditions in past years. The results will help you decide how hot, cold, wet, or windy it might be!

Date:

Astronomy

Nov. 08, 2014 Rise Set
Actual Time 6:45 AM EST 4:33 PM EST
Civil Twilight 6:14 AM EST 5:04 PM EST
Nautical Twilight 5:38 AM EST 5:40 PM EST
Astronomical Twilight 5:03 AM EST 6:15 PM EST
Moon 6:10 PM EST (11/8) 8:21 AM EST (11/8)
Length of Visible Light 10h 50m
Length of Day
9h 47m
Waning Gibbous, 96% of the Moon is Illuminated
Nov 8
Waning Gibbous
Nov 14
Last Quarter
Nov 22
New
Nov 29
First Quarter
Dec 6
Full

Hourly Weather History & Observations

Time (EST) Temp. Windchill Dew Point Humidity Pressure Visibility Wind Dir Wind Speed Gust Speed Precip Events Conditions
12:00 AM 30.2 °F 23.4 °F 17.6 °F 60% 29.88 in 25.0 mi NW 6.9 mph - N/A   Mostly Cloudy
1:00 AM 30.2 °F 23.4 °F 17.6 °F 60% 29.88 in 25.0 mi West 6.9 mph - N/A   Mostly Cloudy
2:00 AM 30.2 °F 24.3 °F 17.6 °F 60% 29.89 in 25.0 mi West 5.8 mph - N/A   Mostly Cloudy
3:00 AM 28.4 °F 23.3 °F 15.8 °F 59% 29.90 in 25.0 mi West 4.6 mph - N/A   Partly Cloudy
4:00 AM 26.6 °F 22.6 °F 15.8 °F 64% 29.90 in 25.0 mi West 3.5 mph - N/A   Partly Cloudy
5:00 AM 26.6 °F 22.6 °F 15.8 °F 64% 29.92 in 25.0 mi WSW 3.5 mph - N/A   Partly Cloudy
6:00 AM 26.6 °F - 17.6 °F 69% 29.93 in 25.0 mi Variable 2.3 mph - N/A   Mostly Cloudy
7:00 AM 28.4 °F 22.2 °F 17.6 °F 64% 29.94 in 45.0 mi West 5.8 mph - N/A   Mostly Cloudy
8:00 AM 30.2 °F 24.3 °F 17.6 °F 60% 29.94 in 45.0 mi SW 5.8 mph - N/A   Mostly Cloudy
9:00 AM 32.0 °F 23.6 °F 17.6 °F 55% 29.94 in 45.0 mi WSW 10.4 mph 17.3 mph N/A   Overcast
10:00 AM 32.0 °F 24.2 °F 17.6 °F 55% 29.92 in 45.0 mi West 9.2 mph - N/A   Mostly Cloudy
11:00 AM 32.0 °F 24.8 °F 19.4 °F 60% 29.91 in 45.0 mi WSW 8.1 mph - N/A   Overcast
12:00 PM 33.8 °F 26.4 °F 19.4 °F 56% 29.89 in 45.0 mi SW 9.2 mph 18.4 mph N/A   Overcast
1:00 PM 33.8 °F 28.6 °F 21.2 °F 60% 29.87 in 45.0 mi SW 5.8 mph - N/A   Overcast
2:00 PM 35.6 °F 30.7 °F 21.2 °F 56% 29.85 in 45.0 mi SW 5.8 mph - N/A   Overcast
3:00 PM 35.6 °F 31.7 °F 21.2 °F 56% 29.85 in 45.0 mi West 4.6 mph - N/A   Overcast
4:00 PM 35.6 °F 32.8 °F 23.0 °F 60% 29.84 in 45.0 mi SSW 3.5 mph - N/A   Overcast
5:00 PM 35.6 °F 32.8 °F 23.0 °F 60% 29.83 in 25.0 mi SSW 3.5 mph - N/A   Overcast
5:34 PM 35.6 °F - 23.0 °F 60% 29.82 in 25.0 mi South 2.3 mph - N/A Snow Light Snow
6:00 PM 33.8 °F 29.6 °F 26.6 °F 75% 29.82 in 25.0 mi SW 4.6 mph - N/A Snow Light Snow
7:00 PM 32.0 °F 28.7 °F 30.2 °F 93% 29.81 in 15.0 mi South 3.5 mph - N/A Snow Light Snow
7:42 PM 33.8 °F 30.8 °F 30.2 °F 87% 29.80 in 25.0 mi ESE 3.5 mph - N/A   Overcast
8:00 PM 32.0 °F - 30.2 °F 93% 29.79 in 25.0 mi Calm Calm - N/A   Overcast
9:00 PM 33.8 °F 29.6 °F 30.2 °F 87% 29.78 in 25.0 mi ENE 4.6 mph - N/A   Overcast
9:25 PM 33.8 °F - 30.2 °F 87% 29.76 in 25.0 mi NE 2.3 mph - N/A Snow Light Snow
9:45 PM 33.8 °F 30.8 °F 30.2 °F 87% 29.76 in 25.0 mi NNE 3.5 mph - N/A   Overcast
10:00 PM 33.8 °F - 30.2 °F 87% 29.75 in 20.0 mi Calm Calm - N/A Snow Light Snow
10:16 PM 33.8 °F 30.8 °F 32.0 °F 93% 29.75 in 25.0 mi ESE 3.5 mph - N/A Rain Light Rain
11:00 PM 33.8 °F 29.6 °F 32.0 °F 93% 29.74 in 25.0 mi North 4.6 mph - N/A Rain Light Rain